FW4077 Weather Reports


Display with metric or nautical units.
time (UTC)temp
F
wind
direction
speed
MPH
gust
MPH
rain 1hr
in
rain 24hr
in
rain mn
in
humidity
%
barometer
mb
20260506192517 55 0.0 0.0 0.06 0.57 0.47 96 1004.9
20260506191517 56 0.0 2.0 0.08 0.57 0.47 96 1004.9
20260506190517 58 315 1.0 2.0 0.11 0.57 0.47 98 1005.0
20260506185517 58 0.0 0.0 0.13 0.56 0.46 98 1005.0
20260506184537 58 0.0 0.0 0.16 0.55 0.45 98 1005.1
20260506183517 58 0.0 0.0 0.17 0.53 0.43 98 1005.3
20260506182517 58 0.0 0.0 0.18 0.51 0.41 98 1005.2
20260506181517 58 0.0 1.0 0.17 0.49 0.39 98 1005.3
20260506180517 57 0.0 1.0 0.15 0.46 0.36 98 1005.5
20260506175517 58 0.0 1.0 0.14 0.43 0.33 98 1005.7
20260506174518 58 0.0 1.0 0.11 0.39 0.29 98 1005.7
20260506173517 58 0.0 2.0 0.09 0.36 0.26 98 1005.6
20260506172517 58 0.0 2.0 0.07 0.33 0.23 98 1005.9
20260506171517 58 0.0 1.0 0.07 0.32 0.22 98 1005.9
20260506170518 57 0.0 1.0 0.07 0.31 0.21 98 1005.9
20260506165518 57 0.0 2.0 0.05 0.29 0.19 98 1005.9
20260506164537 57 0.0 2.0 0.05 0.28 0.18 98 1005.8
20260506163516 57 0.0 2.0 0.04 0.27 0.17 98 1006.0
20260506162517 57 0.0 1.0 0.04 0.26 0.16 98 1006.1
20260506161536 56 0.0 0.0 0.04 0.25 0.15 98 1006.2
20260506160516 56 0.0 1.0 0.04 0.24 0.14 98 1006.3
20260506155516 56 0.0 1.0 0.05 0.24 0.14 98 1006.5
20260506154517 56 0.0 0.0 0.04 0.23 0.13 97 1006.8
20260506153516 56 0.0 0.0 0.05 0.23 0.13 97 1006.9
20260506152517 55 0.0 0.0 0.05 0.22 0.12 98 1007.1
20260506151516 55 0.0 0.0 0.04 0.21 0.11 97 1007.3
20260506150516 55 0.0 0.0 0.03 0.20 0.10 97 1007.4
20260506145516 55 0.0 0.0 0.02 0.19 0.09 97 1007.5
20260506144517 55 0.0 0.0 0.02 0.19 0.09 97 1007.4
20260506143516 55 0.0 1.0 0.01 0.18 0.08 97 1007.5
20260506142516 55 0.0 0.0 0.00 0.17 0.07 97 1007.5
20260506141536 55 0.0 0.0 0.01 0.17 0.07 98 1007.5
20260506140516 55 0.0 0.0 0.01 0.17 0.07 98 1007.5
20260506135516 55 0.0 0.0 0.01 0.17 0.07 98 1007.5
20260506134520 55 0.0 0.0 0.01 0.17 0.07 97 1007.5
20260506133516 54 0.0 0.0 0.01 0.17 0.07 97 1007.6
20260506132517 54 0.0 1.0 0.01 0.17 0.07 97 1007.8
20260506131516 54 0.0 0.0 0.00 0.16 0.06 98 1007.7
20260506130536 54 0.0 1.0 0.00 0.16 0.06 97 1008.2
20260506125536 54 0.0 1.0 0.00 0.16 0.06 97 1008.2
20260506124516 54 0.0 0.0 0.00 0.16 0.06 98 1007.9
20260506123516 54 0.0 1.0 0.00 0.16 0.06 98 1007.9
20260506122516 54 0.0 0.0 0.00 0.16 0.06 97 1008.1
20260506121516 54 0.0 1.0 0.00 0.16 0.06 97 1007.9
20260506120516 54 0.0 0.0 0.00 0.16 0.06 97 1008.2
20260506115516 54 0.0 0.0 0.00 0.16 0.06 97 1007.9
20260506114516 54 0.0 0.0 0.00 0.16 0.06 97 1008.0
20260506113516 54 0.0 1.0 0.00 0.16 0.06 97 1008.0
20260506112516 54 0.0 0.0 0.00 0.16 0.06 97 1008.0
20260506111516 54 0.0 0.0 0.00 0.16 0.06 98 1008.3
20260506110516 54 0.0 0.0 0.00 0.16 0.06 97 1008.2
20260506105516 53 0.0 0.0 0.00 0.16 0.06 97 1008.2
20260506104515 53 0.0 0.0 0.00 0.16 0.06 97 1008.2
20260506103516 53 0.0 0.0 0.00 0.16 0.06 97 1008.3
20260506102516 53 0.0 0.0 0.01 0.16 0.06 97 1008.1
20260506101516 53 0.0 0.0 0.01 0.16 0.06 97 1008.2
20260506100515 53 0.0 0.0 0.01 0.16 0.06 97 1008.3
20260506095515 53 0.0 0.0 0.01 0.16 0.06 97 1008.2
20260506094515 53 0.0 0.0 0.01 0.16 0.06 97 1008.3
20260506093515 54 0.0 0.0 0.01 0.16 0.06 96 1008.2
20260506092516 54 0.0 0.0 0.00 0.15 0.05 97 1008.1
20260506091516 54 0.0 0.0 0.00 0.15 0.05 97 1008.5
20260506090515 54 0.0 0.0 0.00 0.15 0.05 97 1008.6
20260506085516 54 0.0 2.0 0.00 0.15 0.05 97 1008.7
20260506084515 54 0.0 0.0 0.00 0.15 0.05 97 1008.9
20260506083515 55 0.0 0.0 0.00 0.15 0.05 97 1008.9
20260506082515 55 0.0 0.0 0.00 0.15 0.05 97 1009.2
20260506081515 55 0.0 0.0 0.00 0.15 0.05 97 1008.9
20260506080516 55 0.0 0.0 0.00 0.15 0.05 97 1009.0
20260506073515 55 0.0 1.0 0.00 0.15 0.05 97 1009.0
20260506072515 55 0.0 2.0 0.00 0.15 0.05 97 1009.4
20260506071516 55 0.0 0.0 0.00 0.15 0.05 97 1009.4
20260506070515 55 0.0 1.0 0.00 0.15 0.05 97 1009.0
20260506062515 56 203 1.0 2.0 0.00 0.15 0.05 96 1009.4
20260506061515 56 0.0 0.0 0.00 0.15 0.05 96 1009.9
20260506060515 56 0.0 1.0 0.02 0.15 0.05 96 1009.7
20260506050515 58 203 1.0 2.0 0.03 0.13 0.03 95 1009.1
20260506044517 57 0.0 1.0 0.02 0.12 0.02 94 1008.8
20260506043517 57 0.0 0.0 0.00 0.10 0.00 94 1008.5
20260506042517 57 0.0 0.0 0.00 0.10 0.00 94 1008.4
20260506041517 57 0.0 0.0 0.00 0.10 0.00 95 1008.1
20260506040516 57 0.0 0.0 0.00 0.10 0.00 94 1008.0
20260506035516 57 0.0 0.0 0.00 0.10 0.10 95 1008.0
20260506034555 57 0.0 0.0 0.00 0.10 0.10 95 1007.7
20260506033515 57 0.0 1.0 0.00 0.10 0.10 95 1007.8
20260506032515 56 0.0 0.0 0.00 0.10 0.10 95 1007.6
20260506031535 56 0.0 1.0 0.00 0.10 0.10 95 1007.5
20260506030515 56 0.0 2.0 0.00 0.10 0.10 96 1007.9
20260506025515 56 0.0 2.0 0.00 0.10 0.10 96 1007.9
20260506024515 56 0.0 2.0 0.00 0.10 0.10 96 1007.7
20260506023535 56 0.0 2.0 0.00 0.10 0.10 96 1007.8
20260506022515 56 0.0 1.0 0.00 0.10 0.10 95 1007.4
20260506021555 56 0.0 0.0 0.00 0.10 0.10 95 1007.4
20260506020535 57 0.0 1.0 0.00 0.10 0.10 95 1007.4
20260506015515 57 0.0 1.0 0.00 0.10 0.10 95 1007.4
20260506014555 57 0.0 2.0 0.00 0.10 0.10 94 1007.4
20260506013515 58 0.0 1.0 0.00 0.10 0.10 95 1007.2
20260506012517 58 0.0 1.0 0.00 0.10 0.10 95 1007.4
20260506011517 58 0.0 1.0 0.00 0.10 0.10 95 1007.3
20260506010537 58 0.0 0.0 0.00 0.10 0.10 95 1007.1
20260506005517 58 0.0 1.0 0.00 0.10 0.10 95 1007.1
20260506004518 59 0.0 3.0 0.00 0.10 0.10 95 1006.9
20260505202827 77 270 4.0 10.0 0.00 0.00 0.00 41 1003.6